Location: Civry
(47.2902°N, 4.6156°E)
Time: 08:42:38
(UTC+00:00)

SL-24 R/B - RUBIN 2 - Pass Details

Date: 09 April 2020
Orbit: 569 x 1026 km, 64.6° (Epoch: 01 June)

Event Time Altitude Azimuth Distance (km) Brightness Sun altitude
Rises 19:21:27 0° 213° (SSW) 3,249 7.4 -10.3°
Reaches altitude 10° 19:23:43 10° 213° (SSW) 2,391 6.7 -10.6°
Maximum altitude 19:29:19 85° 126° (SE) 898 4.3 -11.5°
Drops below altitude 10° 19:35:40 10° 39° (NE) 2,703 6.7 -12.4°
Sets 19:38:23 0° 39° (NE) 3,701 7.4 -12.8°
